DW2932 Weather Reports


Display with metric or nautical units.
time (UTC)temp
F
wind
direction
speed
MPH
gust
MPH
rain 1hr
in
rain 24hr
in
rain mn
in
humidity
%
barometer
mb
20260505223122 77 117 0.0 3.0 0.00 0.00 0.00 40 1012.4
20260505222118 78 108 1.0 6.0 0.00 0.00 0.00 37 1012.5
20260505221135 81 139 1.0 5.0 0.00 0.00 0.00 36 1012.5
20260505220116 81 141 2.0 8.0 0.00 0.00 0.00 35 1012.5
20260505215112 81 108 1.0 4.0 0.00 0.00 0.00 37 1012.5
20260505214129 80 104 0.0 4.0 0.00 0.00 0.00 42 1012.6
20260505213129 80 126 2.0 7.0 0.00 0.00 0.00 40 1012.6
20260505212146 79 121 1.0 4.0 0.00 0.00 0.00 42 1012.6
20260505211121 79 162 0.0 5.0 0.00 0.00 0.00 43 1012.7
20260505210118 78 146 0.0 4.0 0.00 0.00 0.00 45 1012.7
20260505205119 78 148 1.0 5.0 0.00 0.00 0.00 45 1012.8
20260505204116 78 175 0.0 5.0 0.00 0.00 0.00 45 1012.9
20260505203113 78 99 1.0 4.0 0.00 0.00 0.00 44 1012.8
20260505202128 78 174 1.0 4.0 0.00 0.00 0.00 47 1012.9
20260505201129 77 165 0.0 5.0 0.00 0.00 0.00 48 1012.9
20260505200127 76 178 2.0 6.0 0.00 0.00 0.00 47 1013.0
20260505195144 76 172 1.0 6.0 0.00 0.00 0.00 48 1013.1
20260505194125 75 117 0.0 7.0 0.00 0.00 0.00 50 1013.1
20260505193122 75 160 1.0 5.0 0.00 0.00 0.00 50 1013.1
20260505192118 74 179 0.0 5.0 0.00 0.00 0.00 53 1013.2
20260505191134 74 156 1.0 6.0 0.00 0.00 0.00 54 1013.2
20260505190113 74 165 1.0 5.0 0.00 0.00 0.00 52 1013.2
20260505185110 73 160 0.0 5.0 0.00 0.00 0.00 55 1013.3
20260505184127 73 153 0.0 4.0 0.00 0.00 0.00 54 1013.3
20260505183128 72 179 1.0 4.0 0.00 0.00 0.00 55 1013.3
20260505182125 72 156 2.0 5.0 0.00 0.00 0.00 54 1013.4
20260505181122 71 179 1.0 3.0 0.00 0.00 0.00 56 1013.4
20260505180140 71 166 1.0 4.0 0.00 0.00 0.00 54 1013.5
20260505175120 71 138 0.0 1.0 0.00 0.00 0.00 52 1013.4
20260505174116 70 175 0.0 2.0 0.00 0.00 0.00 53 1013.5
20260505173113 69 170 0.0 1.0 0.00 0.00 0.00 55 1013.5
20260505172114 68 143 0.0 4.0 0.00 0.00 0.00 54 1013.5
20260505171133 68 157 0.0 2.0 0.00 0.00 0.00 56 1013.6
20260505170127 67 143 1.0 3.0 0.00 0.00 0.00 57 1013.5
20260505165123 66 126 0.0 3.0 0.00 0.00 0.00 61 1013.6
20260505164123 66 124 0.0 4.0 0.00 0.00 0.00 60 1013.5
20260505163139 65 120 0.0 2.0 0.00 0.00 0.00 60 1013.4
20260505162114 64 147 0.0 4.0 0.00 0.00 0.00 62 1013.4
20260505161111 63 155 1.0 3.0 0.00 0.00 0.00 62 1013.5
20260505160112 63 160 0.0 4.0 0.00 0.00 0.00 62 1013.5
20260505153122 61 146 1.0 5.0 0.00 0.00 0.00 65 1013.5
20260505152122 61 147 0.0 2.0 0.00 0.00 0.00 67 1013.5
20260505151120 60 146 0.0 3.0 0.00 0.00 0.00 68 1013.4
20260505150136 59 153 2.0 6.0 0.00 0.00 0.00 68 1013.3
20260505140123 55 157 0.0 1.0 0.00 0.00 0.00 77 1013.0
20260505130146 53 137 0.0 6.0 0.00 0.00 0.00 78 1012.6
20260505124122 54 137 1.0 3.0 0.00 0.00 0.00 77 1012.4
20260505123120 54 134 0.0 2.0 0.00 0.00 0.00 77 1012.3
20260505122114 54 143 0.0 1.0 0.00 0.00 0.00 76 1012.3
20260505121114 55 131 0.0 5.0 0.00 0.00 0.00 76 1012.3
20260505120112 55 127 0.0 4.0 0.00 0.00 0.00 75 1012.2
20260505115147 55 127 0.0 6.0 0.00 0.00 0.00 75 1012.1
20260505114142 55 164 0.0 5.0 0.00 0.00 0.00 76 1012.1
20260505113144 55 101 0.0 3.0 0.00 0.00 0.00 76 1012.1
20260505112140 55 139 0.0 4.0 0.00 0.00 0.00 76 1012.1
20260505111116 55 129 1.0 8.0 0.00 0.00 0.00 76 1012.0
20260505110114 55 150 0.0 7.0 0.00 0.00 0.00 76 1012.0
20260505102119 57 152 0.0 5.0 0.00 0.00 0.00 73 1011.9
20260505101115 57 153 0.0 4.0 0.00 0.00 0.00 73 1011.8
20260505100111 57 141 0.0 2.0 0.00 0.00 0.00 73 1011.7
20260505095147 57 129 1.0 4.0 0.00 0.00 0.00 73 1011.6
20260505094126 57 137 0.0 1.0 0.00 0.00 0.00 72 1011.4
20260505093124 57 136 1.0 3.0 0.00 0.00 0.00 71 1011.4
20260505092117 57 139 1.0 6.0 0.00 0.00 0.00 71 1011.4
20260505091119 57 133 0.0 6.0 0.00 0.00 0.00 70 1011.4
20260505090116 57 157 0.0 3.0 0.00 0.00 0.00 70 1011.4
20260505085112 58 163 0.0 5.0 0.00 0.00 0.00 70 1011.3
20260505084113 58 160 0.0 3.0 0.00 0.00 0.00 70 1011.2
20260505083129 58 136 0.0 2.0 0.00 0.00 0.00 71 1011.2
20260505082124 58 108 0.0 1.0 0.00 0.00 0.00 71 1011.2
20260505081119 58 134 0.0 0.0 0.00 0.00 0.00 71 1011.1
20260505080121 59 153 0.0 3.0 0.00 0.00 0.00 70 1011.2
20260505075117 59 148 0.0 2.0 0.00 0.00 0.00 71 1011.2
20260505074112 59 139 0.0 1.0 0.00 0.00 0.00 70 1011.0
20260505073114 59 178 0.0 0.0 0.00 0.00 0.00 69 1010.9
20260505072110 59 145 1.0 4.0 0.00 0.00 0.00 69 1010.8
20260505071128 59 140 0.0 1.0 0.00 0.00 0.00 69 1010.7
20260505070124 59 100 0.0 1.0 0.00 0.00 0.00 69 1010.8
20260505065125 60 148 0.0 0.0 0.00 0.00 0.00 69 1010.7
20260505064121 61 148 0.0 1.0 0.00 0.00 0.00 67 1010.6
20260505063119 61 113 0.0 2.0 0.00 0.00 0.00 66 1010.5
20260505062141 62 141 0.0 4.0 0.00 0.00 0.00 65 1010.5
20260505061117 62 141 0.0 2.0 0.00 0.00 0.00 64 1010.4
20260505060115 63 138 0.0 4.0 0.00 0.00 0.00 63 1010.3
20260505055115 63 167 0.0 1.0 0.00 0.00 0.00 63 1010.3
20260505054132 64 146 0.0 7.0 0.00 0.00 0.00 62 1010.3
20260505053128 63 108 0.0 4.0 0.00 0.00 0.00 62 1010.3
20260505052145 64 141 1.0 4.0 0.00 0.00 0.00 61 1010.3
20260505051140 64 136 1.0 5.0 0.00 0.00 0.00 61 1010.3
20260505050118 64 141 1.0 4.0 0.00 0.00 0.00 60 1010.2
20260505041139 67 168 0.0 8.0 0.00 0.00 0.00 56 1009.8
20260505040116 67 132 0.0 4.0 0.00 0.00 0.00 56 1009.8
20260505035116 67 131 0.0 6.0 0.00 0.00 0.00 55 1009.6
20260505034111 67 121 1.0 5.0 0.00 0.00 0.00 55 1009.5
20260505033148 67 120 3.0 8.0 0.00 0.00 0.00 54 1009.4
20260505032123 68 139 0.0 9.0 0.00 0.00 0.00 54 1009.2
20260505031124 68 159 0.0 4.0 0.00 0.00 0.00 53 1009.1
20260505030122 70 116 1.0 5.0 0.00 0.00 0.00 51 1009.0
20260505025120 70 106 0.0 4.0 0.00 0.00 0.00 50 1009.0
20260505024120 71 149 0.0 6.0 0.00 0.00 0.00 49 1008.9
20260505023117 72 103 3.0 7.0 0.00 0.00 0.00 48 1008.9
20260505022114 72 136 0.0 7.0 0.00 0.00 0.00 47 1008.8
20260505021114 73 103 2.0 9.0 0.00 0.00 0.00 44 1008.7
20260505020111 74 135 2.0 8.0 0.00 0.00 0.00 43 1008.5
20260505015128 75 148 0.0 5.0 0.00 0.00 0.00 41 1008.6
20260505014125 76 129 2.0 10.0 0.00 0.00 0.00 39 1008.5
20260505013127 77 134 2.0 9.0 0.00 0.00 0.00 37 1008.6
20260505012124 78 146 2.0 6.0 0.00 0.00 0.00 36 1008.7
20260505011122 78 148 1.0 10.0 0.00 0.00 0.00 38 1008.7
20260505010142 79 135 0.0 6.0 0.00 0.00 0.00 37 1008.7
20260505005119 79 108 1.0 5.0 0.00 0.00 0.00 35 1008.6
20260505004114 79 129 0.0 6.0 0.00 0.00 0.00 35 1008.5
20260505003133 79 141 4.0 12.0 0.00 0.00 0.00 34 1008.6
20260505002110 80 148 3.0 9.0 0.00 0.00 0.00 33 1008.4
20260505001128 80 144 3.0 10.0 0.00 0.00 0.00 31 1008.5
20260505000124 81 143 3.0 9.0 0.00 0.00 0.00 32 1008.3
20260504235124 81 136 1.0 12.0 0.00 0.00 0.00 32 1008.4
20260504234120 82 134 3.0 10.0 0.00 0.00 0.00 30 1008.3
20260504233118 81 117 1.0 12.0 0.00 0.00 0.00 31 1008.2
20260504232133 82 141 1.0 8.0 0.00 0.00 0.00 31 1008.3
20260504231114 82 154 3.0 7.0 0.00 0.00 0.00 30 1008.5
20260504230111 82 131 2.0 7.0 0.00 0.00 0.00 29 1008.5
20260504225129 82 139 4.0 9.0 0.00 0.00 0.00 29 1008.5
20260504224129 82 131 2.0 8.0 0.00 0.00 0.00 30 1008.7